User: anonymous   Login
Location: Melbourne
(37.8170°S, 144.9670°E)
Time: 17:22:11
(UTC+10:00)
Language:

CZ-3 R/B - Orbit

View from above orbital plane
View from above orbital plane
View from above satellite
View from above satellite

Ground track
Ground track

The orbit data is extracted from the following two-line orbital elements,

1 29517U 06048B   16126.22509769  .00058645  00000-0  94883-3 0  9991
2 29517  28.4849  74.3279 4534046 292.0684  26.5848  6.57085226140100
Epoch (UTC): 05 May 2016 05:24:08
Eccentricity: 0.4534046
inclination: 28.4849°
perigee height: 203 km
apogee height: 11122 km
right ascension of ascending node: 74.3279°
argument of perigee: 292.0684°
revolutions per day: 6.57085226
mean anomaly at epoch: 26.5848°
orbit number at epoch: 14010

The dashed part of the orbit path shows where the satellite is in the earth's shadow,  

DLR